WRC320 UKBB-LGIR

Flight info

Callsign WRC320
Flight time 2h 23m
Altitude 37000
Route BASOR M856 GOBLI L919 BAGRI/N0434F380 DCT IRDUM/N0432F370 T219 RIXEN DCT IST/N0435F380 DCT IMR DCT XAVIS
Aircraft A320/M-SDE3FGHIRWY/LB1

Departure

Time 2026-04-27 13:41
Airport Boryspil International Airport (UKBB)

Arrival

Time 2026-04-27 16:05
Airport Heraklion International Nikos Kazantzakis Airport (LGIR)
Time Latitude Longitude Altitude Speed Heading
2026-04-27 13:09 50.35152 30.89888 415 ft 0 kts 272°
2026-04-27 13:26 50.35152 30.89898 412 ft 2 kts 272°
2026-04-27 13:27 50.35151 30.89924 407 ft 2 kts 272°
2026-04-27 13:27 50.35150 30.89951 408 ft 3 kts 265°
2026-04-27 13:27 50.35155 30.89977 408 ft 2 kts 239°
2026-04-27 13:27 50.35164 30.90000 406 ft 3 kts 218°
2026-04-27 13:28 50.35180 30.90013 409 ft 3 kts 181°
2026-04-27 13:28 50.35183 30.90014 406 ft 0 kts 175°
2026-04-27 13:30 50.35180 30.90014 409 ft 2 kts 175°
2026-04-27 13:31 50.35165 30.90014 407 ft 2 kts 180°
2026-04-27 13:31 50.35132 30.90012 413 ft 5 kts 182°
2026-04-27 13:31 50.35101 30.90010 415 ft 4 kts 183°
2026-04-27 13:31 50.35076 30.90009 411 ft 3 kts 181°
2026-04-27 13:32 50.35059 30.90008 415 ft 6 kts 182°
2026-04-27 13:32 50.34994 30.90003 413 ft 10 kts 183°
2026-04-27 13:32 50.34929 30.90006 410 ft 9 kts 165°
2026-04-27 13:32 50.34894 30.90073 415 ft 9 kts 102°
2026-04-27 13:33 50.34888 30.90168 415 ft 8 kts 103°
2026-04-27 13:33 50.34848 30.90225 412 ft 9 kts 160°
2026-04-27 13:33 50.34793 30.90230 412 ft 7 kts 182°
2026-04-27 13:33 50.34736 30.90225 412 ft 11 kts 182°
2026-04-27 13:34 50.34653 30.90219 414 ft 11 kts 182°
2026-04-27 13:34 50.34553 30.90212 411 ft 18 kts 182°
2026-04-27 13:34 50.34427 30.90202 411 ft 17 kts 183°
2026-04-27 13:34 50.34312 30.90193 413 ft 16 kts 182°
2026-04-27 13:35 50.34208 30.90186 411 ft 14 kts 183°
2026-04-27 13:35 50.34114 30.90179 412 ft 13 kts 182°
2026-04-27 13:35 50.34021 30.90173 416 ft 16 kts 182°
2026-04-27 13:35 50.33894 30.90163 410 ft 19 kts 182°
2026-04-27 13:36 50.33768 30.90154 412 ft 17 kts 182°
2026-04-27 13:36 50.33652 30.90146 412 ft 16 kts 182°
2026-04-27 13:36 50.33522 30.90136 416 ft 22 kts 182°
2026-04-27 13:36 50.33352 30.90122 408 ft 26 kts 183°
2026-04-27 13:37 50.33169 30.90109 414 ft 27 kts 182°
2026-04-27 13:37 50.32973 30.90096 416 ft 29 kts 182°
2026-04-27 13:37 50.32769 30.90075 414 ft 30 kts 183°
2026-04-27 13:37 50.32566 30.90059 414 ft 27 kts 182°
2026-04-27 13:38 50.32484 30.90092 412 ft 0 kts 146°
2026-04-27 13:38 50.32483 30.90093 412 ft 1 kts 146°
2026-04-27 13:39 50.32466 30.90113 416 ft 6 kts 139°
2026-04-27 13:39 50.32442 30.90191 412 ft 10 kts 100°
2026-04-27 13:39 50.32458 30.90299 418 ft 8 kts 58°
2026-04-27 13:39 50.32489 30.90349 418 ft 7 kts 38°
2026-04-27 13:40 50.32556 30.90390 415 ft 13 kts
2026-04-27 13:40 50.32576 30.90392 421 ft 0 kts
2026-04-27 13:40 50.32587 30.90393 424 ft 14 kts
2026-04-27 13:40 50.32966 30.90420 419 ft 91 kts
2026-04-27 13:41 50.33804 30.90476 421 ft 147 kts
2026-04-27 13:41 50.34912 30.90639 891 ft 158 kts
2026-04-27 13:41 50.35997 30.90829 1722 ft 156 kts 356°
2026-04-27 13:41 50.37081 30.90979 2418 ft 163 kts 355°
2026-04-27 13:42 50.38289 30.91072 2793 ft 185 kts 353°
2026-04-27 13:42 50.39664 30.91124 3249 ft 209 kts 354°
2026-04-27 13:42 50.41202 30.91179 3726 ft 233 kts 354°
2026-04-27 13:42 50.42875 30.91252 4468 ft 245 kts 355°
2026-04-27 13:43 50.44600 30.91344 5450 ft 250 kts 355°
2026-04-27 13:43 50.46351 30.91443 6389 ft 255 kts 356°
2026-04-27 13:43 50.48141 30.91540 7306 ft 259 kts 356°
2026-04-27 13:43 50.49979 30.91642 8311 ft 261 kts 357°
2026-04-27 13:44 50.51772 30.92352 9266 ft 278 kts 23°
2026-04-27 13:44 50.53187 30.94543 10189 ft 300 kts 55°
2026-04-27 13:44 50.53950 30.97661 11076 ft 308 kts 65°
2026-04-27 13:44 50.54783 31.00734 11854 ft 311 kts 56°
2026-04-27 13:45 50.55559 31.04116 12139 ft 348 kts 77°
2026-04-27 13:45 50.55319 31.08015 12609 ft 375 kts 107°
2026-04-27 13:45 50.53957 31.11560 13327 ft 386 kts 134°
2026-04-27 13:45 50.51719 31.13967 14032 ft 388 kts 162°
2026-04-27 13:46 50.49113 31.14959 14679 ft 385 kts 180°
2026-04-27 13:46 50.46447 31.14839 15332 ft 381 kts 194°
2026-04-27 13:46 50.43804 31.14333 16010 ft 385 kts 195°
2026-04-27 13:46 50.41141 31.13774 16695 ft 389 kts 196°
2026-04-27 13:47 50.38433 31.13182 17375 ft 393 kts 197°
2026-04-27 13:47 50.35718 31.12583 18053 ft 398 kts 197°
2026-04-27 13:47 50.32965 31.11976 18660 ft 403 kts 197°
2026-04-27 13:47 50.30189 31.11371 19248 ft 406 kts 197°
2026-04-27 13:48 50.27350 31.10758 19858 ft 410 kts 197°
2026-04-27 13:48 50.24511 31.10154 20459 ft 414 kts 197°
2026-04-27 13:48 50.21643 31.09545 21052 ft 418 kts 198°
2026-04-27 13:48 50.18785 31.08935 21642 ft 421 kts 198°
2026-04-27 13:49 50.15851 31.08307 22247 ft 425 kts 198°
2026-04-27 13:49 50.12891 31.07677 22830 ft 429 kts 198°
2026-04-27 13:49 50.09926 31.07050 23412 ft 432 kts 198°
2026-04-27 13:49 50.06929 31.06419 23919 ft 436 kts 198°
2026-04-27 13:50 50.03914 31.05786 24403 ft 439 kts 198°
2026-04-27 13:50 50.00875 31.05148 24877 ft 441 kts 198°
2026-04-27 13:50 49.97828 31.04509 25341 ft 444 kts 198°
2026-04-27 13:50 49.94763 31.03867 25800 ft 447 kts 197°
2026-04-27 13:51 49.91686 31.03223 26240 ft 449 kts 197°
2026-04-27 13:51 49.88570 31.02568 26685 ft 451 kts 197°
2026-04-27 13:51 49.85465 31.01914 27121 ft 453 kts 198°
2026-04-27 13:51 49.82326 31.01248 27548 ft 456 kts 197°
2026-04-27 13:52 49.79183 31.00580 27965 ft 458 kts 197°
2026-04-27 13:52 49.76019 30.99917 28392 ft 460 kts 197°
2026-04-27 13:52 49.72824 30.99253 28790 ft 462 kts 197°
2026-04-27 13:52 49.69637 30.98592 29180 ft 465 kts 197°
2026-04-27 13:53 49.63229 30.97268 29935 ft 469 kts 197°
2026-04-27 13:53 49.59990 30.96596 30266 ft 471 kts 197°
2026-04-27 13:53 49.56702 30.95913 30575 ft 473 kts 197°
2026-04-27 13:54 49.53422 30.95233 30864 ft 474 kts 197°
2026-04-27 13:54 49.50158 30.94557 31141 ft 476 kts 197°
2026-04-27 13:54 49.46853 30.93876 31416 ft 478 kts 196°
2026-04-27 13:54 49.43571 30.93201 31770 ft 477 kts 196°
2026-04-27 13:55 49.40281 30.92530 32148 ft 475 kts 196°
2026-04-27 13:55 49.37022 30.91868 32529 ft 474 kts 196°
2026-04-27 13:55 49.33751 30.91201 32901 ft 473 kts 196°
2026-04-27 13:55 49.30497 30.90532 33290 ft 472 kts 196°
2026-04-27 13:56 49.27233 30.89860 33667 ft 471 kts 196°
2026-04-27 13:56 49.23981 30.89192 34042 ft 470 kts 195°
2026-04-27 13:56 49.20769 30.88536 34356 ft 469 kts 195°
2026-04-27 13:56 49.17509 30.87874 34674 ft 469 kts 195°
2026-04-27 13:57 49.14277 30.87213 34983 ft 468 kts 195°
2026-04-27 13:57 49.11013 30.86542 35302 ft 467 kts 195°
2026-04-27 13:57 49.07808 30.85885 35619 ft 466 kts 195°
2026-04-27 13:57 49.04627 30.85236 35918 ft 465 kts 195°
2026-04-27 13:58 49.01373 30.84577 36221 ft 465 kts 194°
2026-04-27 13:58 48.98177 30.83931 36502 ft 464 kts 194°
2026-04-27 13:58 48.95020 30.83294 36766 ft 463 kts 194°
2026-04-27 13:58 48.91821 30.82650 37023 ft 463 kts 194°
2026-04-27 13:59 48.88627 30.82007 37124 ft 462 kts 194°
2026-04-27 13:59 48.82264 30.80729 37144 ft 460 kts 194°
2026-04-27 14:00 48.75875 30.79442 37132 ft 459 kts 194°
2026-04-27 14:00 48.69555 30.78176 37142 ft 458 kts 194°
2026-04-27 14:01 48.63250 30.76914 37149 ft 457 kts 194°
2026-04-27 14:01 48.56940 30.75652 37145 ft 457 kts 194°
2026-04-27 14:02 48.50633 30.74402 37146 ft 456 kts 194°
2026-04-27 14:02 48.45363 30.73357 37150 ft 456 kts 194°
2026-04-27 14:03 48.39030 30.72108 37147 ft 455 kts 194°
2026-04-27 14:03 48.32802 30.70881 37152 ft 454 kts 194°
2026-04-27 14:04 48.26494 30.69639 37154 ft 454 kts 194°
2026-04-27 14:04 48.20239 30.68409 37155 ft 453 kts 194°
2026-04-27 14:05 48.14035 30.67186 37151 ft 452 kts 194°
2026-04-27 14:05 48.07801 30.65960 37151 ft 451 kts 194°
2026-04-27 14:06 48.01606 30.64485 37147 ft 449 kts 196°
2026-04-27 14:06 47.95406 30.62832 37145 ft 449 kts 196°
2026-04-27 14:07 47.89297 30.61236 37142 ft 449 kts 196°
2026-04-27 14:07 47.83097 30.59686 37140 ft 449 kts 195°
2026-04-27 14:08 47.76918 30.58169 37143 ft 449 kts 195°
2026-04-27 14:08 47.70748 30.56649 37148 ft 449 kts 195°
2026-04-27 14:09 47.64577 30.55118 37140 ft 449 kts 195°
2026-04-27 14:09 47.58425 30.53588 37145 ft 449 kts 195°
2026-04-27 14:10 47.52252 30.52055 37146 ft 449 kts 195°
2026-04-27 14:10 47.46136 30.50537 37151 ft 449 kts 195°
2026-04-27 14:11 47.39939 30.49012 37155 ft 448 kts 195°
2026-04-27 14:11 47.33787 30.47503 37158 ft 448 kts 195°
2026-04-27 14:12 47.27627 30.46009 37172 ft 448 kts 195°
2026-04-27 14:12 47.21508 30.44510 37169 ft 448 kts 195°
2026-04-27 14:13 47.15347 30.43002 37168 ft 448 kts 195°
2026-04-27 14:13 47.09193 30.41504 37161 ft 448 kts 195°
2026-04-27 14:14 47.03033 30.40018 37161 ft 448 kts 195°
2026-04-27 14:14 46.96881 30.38540 37162 ft 448 kts 195°
2026-04-27 14:15 46.90738 30.37070 37162 ft 448 kts 195°
2026-04-27 14:15 46.84587 30.35589 37164 ft 448 kts 195°
2026-04-27 14:16 46.78471 30.34119 37168 ft 448 kts 195°
2026-04-27 14:16 46.72334 30.32654 37171 ft 448 kts 195°
2026-04-27 14:17 46.66210 30.31188 37177 ft 447 kts 195°
2026-04-27 14:17 46.60037 30.29710 37179 ft 447 kts 195°
2026-04-27 14:18 46.53891 30.28253 37190 ft 447 kts 195°
2026-04-27 14:18 46.47767 30.26803 37195 ft 446 kts 195°
2026-04-27 14:19 46.41633 30.25345 37197 ft 446 kts 195°
2026-04-27 14:19 46.35519 30.23904 37194 ft 445 kts 195°
2026-04-27 14:20 46.29400 30.22469 37193 ft 445 kts 195°
2026-04-27 14:20 46.23238 30.21025 37192 ft 444 kts 195°
2026-04-27 14:21 46.17158 30.19543 37197 ft 441 kts 200°
2026-04-27 14:21 46.11289 30.17189 37208 ft 438 kts 202°
2026-04-27 14:22 46.05426 30.14812 37210 ft 437 kts 201°
2026-04-27 14:22 45.99578 30.12457 37215 ft 436 kts 201°
2026-04-27 14:23 45.93741 30.10111 37213 ft 436 kts 201°
2026-04-27 14:23 45.87905 30.07764 37214 ft 435 kts 201°
2026-04-27 14:24 45.82067 30.05417 37218 ft 435 kts 201°
2026-04-27 14:24 45.76211 30.03073 37217 ft 435 kts 201°
2026-04-27 14:25 45.70369 30.00754 37213 ft 435 kts 201°
2026-04-27 14:25 45.64537 29.98440 37218 ft 435 kts 201°
2026-04-27 14:26 45.58708 29.96125 37220 ft 435 kts 201°
2026-04-27 14:26 45.52887 29.93819 37221 ft 435 kts 201°
2026-04-27 14:27 45.47043 29.91501 37221 ft 435 kts 201°
2026-04-27 14:27 45.41218 29.89193 37223 ft 435 kts 201°
2026-04-27 14:28 45.35391 29.86897 37228 ft 435 kts 201°
2026-04-27 14:28 45.29521 29.84588 37226 ft 434 kts 201°
2026-04-27 14:29 45.23691 29.82302 37231 ft 434 kts 201°
2026-04-27 14:29 45.17873 29.80045 37231 ft 435 kts 200°
2026-04-27 14:30 45.11943 29.78175 37249 ft 438 kts 197°
2026-04-27 14:30 45.05916 29.76566 37227 ft 438 kts 197°
2026-04-27 14:31 44.99941 29.74942 37238 ft 437 kts 197°
2026-04-27 14:31 44.93968 29.73225 37238 ft 437 kts 198°
2026-04-27 14:32 44.88012 29.71494 37233 ft 437 kts 198°
2026-04-27 14:32 44.83059 29.70066 37234 ft 437 kts 198°
2026-04-27 14:33 44.77084 29.68358 37236 ft 437 kts 197°
2026-04-27 14:33 44.71136 29.66658 37242 ft 436 kts 198°
2026-04-27 14:34 44.65145 29.64945 37241 ft 436 kts 197°
2026-04-27 14:34 44.59189 29.63256 37243 ft 436 kts 197°
2026-04-27 14:35 44.53290 29.61582 37247 ft 435 kts 197°
2026-04-27 14:35 44.47328 29.59890 37247 ft 435 kts 197°
2026-04-27 14:36 44.41383 29.58208 37247 ft 435 kts 197°
2026-04-27 14:36 44.35456 29.56534 37250 ft 434 kts 197°
2026-04-27 14:37 44.29534 29.54867 37244 ft 434 kts 197°
2026-04-27 14:37 44.23621 29.53206 37251 ft 434 kts 197°
2026-04-27 14:38 44.17705 29.51550 37244 ft 434 kts 197°
2026-04-27 14:38 44.11792 29.49902 37249 ft 434 kts 197°
2026-04-27 14:39 44.05794 29.48228 37252 ft 434 kts 197°
2026-04-27 14:39 43.99911 29.46582 37249 ft 434 kts 197°
2026-04-27 14:40 43.93946 29.44925 37256 ft 434 kts 197°
2026-04-27 14:40 43.88055 29.43295 37261 ft 435 kts 197°
2026-04-27 14:41 43.82089 29.41642 37254 ft 435 kts 197°
2026-04-27 14:41 43.76130 29.39991 37254 ft 436 kts 197°
2026-04-27 14:42 43.70216 29.38274 37255 ft 434 kts 199°
2026-04-27 14:42 43.64409 29.36062 37257 ft 432 kts 202°
2026-04-27 14:43 43.58603 29.33643 37264 ft 433 kts 202°
2026-04-27 14:43 43.52812 29.31313 37267 ft 433 kts 201°
2026-04-27 14:44 43.47036 29.29086 37274 ft 434 kts 200°
2026-04-27 14:44 43.41187 29.26852 37278 ft 434 kts 201°
2026-04-27 14:45 43.35412 29.24629 37276 ft 433 kts 201°
2026-04-27 14:45 43.29607 29.22393 37280 ft 433 kts 201°
2026-04-27 14:46 43.23763 29.20131 37275 ft 433 kts 201°
2026-04-27 14:46 43.17999 29.17914 37277 ft 433 kts 200°
2026-04-27 14:47 43.12192 29.15697 37278 ft 433 kts 200°
2026-04-27 14:47 43.06386 29.13479 37275 ft 433 kts 200°
2026-04-27 14:48 43.00597 29.11275 37274 ft 433 kts 200°
2026-04-27 14:48 42.91893 29.07951 37270 ft 432 kts 200°
2026-04-27 14:49 42.86100 29.05751 37271 ft 432 kts 200°
2026-04-27 14:49 42.80312 29.03567 37271 ft 432 kts 200°
2026-04-27 14:50 42.74526 29.01387 37275 ft 432 kts 200°
2026-04-27 14:50 42.68698 28.99180 37274 ft 431 kts 200°
2026-04-27 14:51 42.62913 28.97002 37267 ft 431 kts 200°
2026-04-27 14:51 42.58110 28.95201 37264 ft 431 kts 200°
2026-04-27 14:52 42.51357 28.92664 37266 ft 431 kts 200°
2026-04-27 14:52 42.45575 28.90499 37263 ft 431 kts 200°
2026-04-27 14:53 42.39834 28.88358 37258 ft 431 kts 200°
2026-04-27 14:53 42.34054 28.86199 37257 ft 431 kts 200°
2026-04-27 14:54 42.28270 28.84045 37249 ft 431 kts 200°
2026-04-27 14:54 42.22486 28.81897 37255 ft 431 kts 200°
2026-04-27 14:55 42.16698 28.79748 37256 ft 432 kts 199°
2026-04-27 14:55 42.10859 28.77592 37261 ft 432 kts 199°
2026-04-27 14:56 42.04833 28.76744 37253 ft 441 kts 182°
2026-04-27 14:56 41.98699 28.77006 37254 ft 442 kts 182°
2026-04-27 14:57 41.92562 28.77252 37258 ft 442 kts 182°
2026-04-27 14:57 41.86377 28.77493 37261 ft 442 kts 182°
2026-04-27 14:58 41.80214 28.77739 37261 ft 442 kts 182°
2026-04-27 14:58 41.74075 28.77989 37261 ft 442 kts 182°
2026-04-27 14:59 41.67931 28.78235 37256 ft 441 kts 182°
2026-04-27 14:59 41.61792 28.78472 37254 ft 441 kts 182°
2026-04-27 15:00 41.55664 28.78722 37248 ft 442 kts 182°
2026-04-27 15:00 41.49532 28.78968 37248 ft 442 kts 182°
2026-04-27 15:01 41.43398 28.79209 37249 ft 442 kts 182°
2026-04-27 15:01 41.37237 28.79454 37244 ft 442 kts 182°
2026-04-27 15:02 41.31091 28.79697 37245 ft 443 kts 182°
2026-04-27 15:02 41.25969 28.79898 37244 ft 443 kts 182°
2026-04-27 15:03 41.19975 28.80130 37248 ft 443 kts 182°
2026-04-27 15:03 41.13829 28.80372 37250 ft 443 kts 182°
2026-04-27 15:04 41.07650 28.80618 37226 ft 443 kts 181°
2026-04-27 15:04 41.01473 28.80860 37222 ft 443 kts 182°
2026-04-27 15:05 40.95434 28.79919 37221 ft 435 kts 200°
2026-04-27 15:05 40.89982 28.76667 37218 ft 429 kts 211°
2026-04-27 15:06 40.84716 28.72925 37215 ft 430 kts 211°
2026-04-27 15:06 40.79409 28.69179 37212 ft 430 kts 211°
2026-04-27 15:07 40.74182 28.65488 37209 ft 430 kts 211°
2026-04-27 15:07 40.68869 28.61725 37205 ft 430 kts 211°
2026-04-27 15:08 40.63628 28.58026 37201 ft 430 kts 211°
2026-04-27 15:08 40.58363 28.54324 37196 ft 430 kts 211°
2026-04-27 15:09 40.53078 28.50609 37191 ft 430 kts 211°
2026-04-27 15:09 40.47799 28.46908 37192 ft 431 kts 211°
2026-04-27 15:10 40.42469 28.43168 37188 ft 430 kts 211°
2026-04-27 15:10 40.37189 28.39466 37180 ft 431 kts 211°
2026-04-27 15:11 40.31947 28.35808 37181 ft 430 kts 211°
2026-04-27 15:11 40.26615 28.32103 37188 ft 431 kts 211°
2026-04-27 15:12 40.21316 28.28423 37177 ft 431 kts 211°
2026-04-27 15:12 40.16029 28.24750 37176 ft 431 kts 211°
2026-04-27 15:13 40.10735 28.21078 37176 ft 431 kts 211°
2026-04-27 15:13 40.05424 28.17411 37164 ft 431 kts 211°
2026-04-27 15:14 40.00187 28.13800 37160 ft 432 kts 211°
2026-04-27 15:14 39.94872 28.10127 37158 ft 432 kts 211°
2026-04-27 15:15 39.89560 28.06469 37148 ft 432 kts 211°
2026-04-27 15:15 39.84232 28.02808 37146 ft 432 kts 211°
2026-04-27 15:16 39.78875 27.99136 37133 ft 432 kts 211°
2026-04-27 15:16 39.73590 27.95529 37130 ft 432 kts 211°
2026-04-27 15:17 39.68265 27.91893 37129 ft 433 kts 211°
2026-04-27 15:17 39.62942 27.88252 37130 ft 433 kts 211°
2026-04-27 15:18 39.57612 27.84620 37131 ft 433 kts 211°
2026-04-27 15:18 39.52269 27.80993 37132 ft 433 kts 211°
2026-04-27 15:19 39.46908 27.77353 37131 ft 433 kts 211°
2026-04-27 15:19 39.41546 27.73720 37127 ft 434 kts 211°
2026-04-27 15:20 39.36230 27.70129 37122 ft 434 kts 211°
2026-04-27 15:20 39.30882 27.66523 37119 ft 434 kts 211°
2026-04-27 15:21 39.25487 27.62894 37115 ft 434 kts 211°
2026-04-27 15:21 39.20122 27.59284 37103 ft 434 kts 211°
2026-04-27 15:22 39.14758 27.55684 37099 ft 435 kts 211°
2026-04-27 15:22 39.09395 27.52093 37094 ft 435 kts 211°
2026-04-27 15:23 39.03988 27.48473 37086 ft 435 kts 211°
2026-04-27 15:23 38.98605 27.44867 37082 ft 435 kts 211°
2026-04-27 15:24 38.93230 27.41284 37079 ft 435 kts 211°
2026-04-27 15:24 38.87868 27.37713 37075 ft 436 kts 211°
2026-04-27 15:25 38.82477 27.34129 37070 ft 436 kts 211°
2026-04-27 15:25 38.77094 27.30561 37063 ft 435 kts 210°
2026-04-27 15:26 38.71701 27.26992 37055 ft 436 kts 210°
2026-04-27 15:26 38.66311 27.23434 37051 ft 436 kts 210°
2026-04-27 15:27 38.60921 27.19875 37048 ft 436 kts 210°
2026-04-27 15:27 38.55530 27.16314 37034 ft 436 kts 210°
2026-04-27 15:28 38.50136 27.12766 37033 ft 437 kts 210°
2026-04-27 15:28 38.44717 27.09217 37030 ft 437 kts 210°
2026-04-27 15:29 38.39313 27.05666 37029 ft 437 kts 210°
2026-04-27 15:29 38.33908 27.02131 37030 ft 437 kts 210°
2026-04-27 15:30 38.28449 26.98703 37029 ft 438 kts 207°
2026-04-27 15:30 38.22866 26.95587 37026 ft 439 kts 206°
2026-04-27 15:31 38.17253 26.92528 37025 ft 439 kts 207°
2026-04-27 15:31 38.11671 26.89415 37019 ft 438 kts 207°
2026-04-27 15:32 38.06088 26.86262 37025 ft 439 kts 207°
2026-04-27 15:32 38.00479 26.83098 37019 ft 439 kts 207°
2026-04-27 15:33 37.94889 26.79962 37014 ft 439 kts 207°
2026-04-27 15:33 37.90235 26.77357 37011 ft 439 kts 207°
2026-04-27 15:34 37.84634 26.74226 37010 ft 440 kts 207°
2026-04-27 15:34 37.79049 26.71110 37007 ft 440 kts 207°
2026-04-27 15:35 37.73429 26.67978 37010 ft 440 kts 207°
2026-04-27 15:35 37.67820 26.64861 37011 ft 440 kts 207°
2026-04-27 15:36 37.62204 26.61742 37019 ft 440 kts 207°
2026-04-27 15:36 37.56594 26.58640 37020 ft 441 kts 206°
2026-04-27 15:37 37.50973 26.55563 37020 ft 442 kts 206°
2026-04-27 15:37 37.45349 26.52447 37027 ft 441 kts 207°
2026-04-27 15:38 37.39742 26.49312 37032 ft 441 kts 207°
2026-04-27 15:38 37.34127 26.46196 37031 ft 441 kts 207°
2026-04-27 15:39 37.28509 26.43113 37032 ft 441 kts 207°
2026-04-27 15:39 37.22888 26.40036 37033 ft 441 kts 207°
2026-04-27 15:40 37.17266 26.36966 37025 ft 441 kts 207°
2026-04-27 15:40 37.11600 26.33875 37023 ft 441 kts 207°
2026-04-27 15:41 37.05976 26.30801 37029 ft 441 kts 207°
2026-04-27 15:41 37.00373 26.27737 37032 ft 441 kts 207°
2026-04-27 15:42 36.94739 26.24661 37030 ft 441 kts 207°
2026-04-27 15:42 36.89124 26.21613 37032 ft 441 kts 207°
2026-04-27 15:43 36.83505 26.18565 36997 ft 441 kts 207°
2026-04-27 15:43 36.80631 26.16989 36056 ft 449 kts 207°
2026-04-27 15:43 36.77761 26.15351 34900 ft 457 kts 208°
2026-04-27 15:44 36.74872 26.13654 33838 ft 462 kts 208°
2026-04-27 15:44 36.71964 26.11925 32911 ft 460 kts 208°
2026-04-27 15:44 36.69050 26.10195 32022 ft 459 kts 208°
2026-04-27 15:44 36.66155 26.08489 31274 ft 455 kts 208°
2026-04-27 15:45 36.63306 26.06822 30598 ft 451 kts 207°
2026-04-27 15:45 36.60479 26.05179 29911 ft 447 kts 207°
2026-04-27 15:45 36.57642 26.03535 29116 ft 439 kts 207°
2026-04-27 15:45 36.54897 26.01946 27994 ft 432 kts 207°
2026-04-27 15:46 36.52227 26.00395 27424 ft 414 kts 207°
2026-04-27 15:46 36.49664 25.98909 26922 ft 397 kts 207°
2026-04-27 15:46 36.47175 25.97469 26423 ft 383 kts 207°
2026-04-27 15:46 36.44789 25.96086 25970 ft 377 kts 207°
2026-04-27 15:47 36.42414 25.94706 25504 ft 374 kts 207°
2026-04-27 15:47 36.40070 25.93346 25064 ft 372 kts 207°
2026-04-27 15:47 36.37729 25.91994 24619 ft 369 kts 207°
2026-04-27 15:47 36.35405 25.90657 24172 ft 367 kts 207°
2026-04-27 15:48 36.33093 25.89325 23719 ft 364 kts 207°
2026-04-27 15:48 36.30770 25.87988 23207 ft 362 kts 207°
2026-04-27 15:48 36.28501 25.86682 22749 ft 359 kts 207°
2026-04-27 15:49 36.24002 25.84085 21830 ft 354 kts 207°
2026-04-27 15:49 36.21779 25.82800 21368 ft 352 kts 207°
2026-04-27 15:49 36.19567 25.81524 20906 ft 350 kts 207°
2026-04-27 15:49 36.17361 25.80255 20437 ft 349 kts 207°
2026-04-27 15:50 36.15158 25.78989 19973 ft 349 kts 207°
2026-04-27 15:50 36.12955 25.77724 19509 ft 348 kts 207°
2026-04-27 15:50 36.10760 25.76465 19049 ft 348 kts 207°
2026-04-27 15:50 36.08564 25.75209 18587 ft 348 kts 207°
2026-04-27 15:51 36.06360 25.73951 18091 ft 348 kts 207°
2026-04-27 15:51 36.04172 25.72701 17639 ft 347 kts 207°
2026-04-27 15:51 36.01987 25.71450 17455 ft 347 kts 207°
2026-04-27 15:51 35.99761 25.70263 17247 ft 350 kts 201°
2026-04-27 15:52 35.97463 25.69280 16741 ft 352 kts 200°
2026-04-27 15:52 35.95107 25.68328 16141 ft 356 kts 199°
2026-04-27 15:52 35.92775 25.67418 15708 ft 354 kts 199°
2026-04-27 15:52 35.90424 25.66506 15245 ft 352 kts 199°
2026-04-27 15:53 35.88085 25.65593 14784 ft 351 kts 199°
2026-04-27 15:53 35.85766 25.64678 14324 ft 350 kts 199°
2026-04-27 15:53 35.83455 25.63758 13864 ft 349 kts 199°
2026-04-27 15:53 35.81146 25.62837 13366 ft 347 kts 199°
2026-04-27 15:54 35.78830 25.61913 12893 ft 344 kts 199°
2026-04-27 15:54 35.76593 25.61018 12443 ft 341 kts 199°
2026-04-27 15:54 35.74310 25.60106 11968 ft 339 kts 199°
2026-04-27 15:54 35.72080 25.59218 11507 ft 336 kts 199°
2026-04-27 15:55 35.69866 25.58341 11043 ft 333 kts 199°
2026-04-27 15:55 35.68409 25.57765 10734 ft 331 kts 199°
2026-04-27 15:55 35.65492 25.56612 10224 ft 324 kts 199°
2026-04-27 15:55 35.63438 25.55792 10101 ft 311 kts 199°
2026-04-27 15:56 35.61423 25.54992 9951 ft 299 kts 199°
2026-04-27 15:56 35.59462 25.54213 9580 ft 295 kts 200°
2026-04-27 15:56 35.57512 25.53437 9131 ft 294 kts 200°
2026-04-27 15:56 35.55578 25.52669 8684 ft 293 kts 200°
2026-04-27 15:57 35.53641 25.51900 8243 ft 291 kts 200°
2026-04-27 15:57 35.51693 25.51128 7677 ft 287 kts 200°
2026-04-27 15:57 35.49822 25.50388 6954 ft 285 kts 200°
2026-04-27 15:57 35.48546 25.49883 6465 ft 284 kts 200°
2026-04-27 15:58 35.46065 25.48901 5459 ft 282 kts 200°
2026-04-27 15:58 35.44215 25.48172 4851 ft 278 kts 200°
2026-04-27 15:58 35.42376 25.47448 4307 ft 278 kts 200°
2026-04-27 15:58 35.41129 25.46957 3951 ft 279 kts 200°
2026-04-27 15:59 35.39306 25.46238 3718 ft 268 kts 200°
2026-04-27 15:59 35.37610 25.45478 3615 ft 251 kts 210°
2026-04-27 15:59 35.36268 25.44250 3519 ft 234 kts 230°
2026-04-27 15:59 35.35363 25.42678 3410 ft 218 kts 247°
2026-04-27 16:00 35.34734 25.41034 3310 ft 212 kts 248°
2026-04-27 16:00 35.34116 25.39427 3218 ft 204 kts 248°
2026-04-27 16:00 35.33521 25.37886 3137 ft 196 kts 248°
2026-04-27 16:00 35.32969 25.36380 3051 ft 191 kts 256°
2026-04-27 16:01 35.32797 25.34852 3010 ft 171 kts 275°
2026-04-27 16:01 35.32897 25.33432 2715 ft 166 kts 277°
2026-04-27 16:01 35.32993 25.32044 2436 ft 160 kts 276°
2026-04-27 16:01 35.33081 25.30734 2207 ft 150 kts 277°
2026-04-27 16:02 35.33165 25.29505 2046 ft 138 kts 277°
2026-04-27 16:02 35.33246 25.28340 1905 ft 137 kts 277°
2026-04-27 16:02 35.33326 25.27198 1674 ft 134 kts 277°
2026-04-27 16:02 35.33404 25.26071 1437 ft 132 kts 277°
2026-04-27 16:03 35.33482 25.24963 1188 ft 130 kts 276°
2026-04-27 16:03 35.33559 25.23855 986 ft 131 kts 276°
2026-04-27 16:03 35.33636 25.22760 785 ft 129 kts 276°
2026-04-27 16:03 35.33713 25.21668 570 ft 128 kts 277°
2026-04-27 16:04 35.33795 25.20575 363 ft 127 kts 277°
2026-04-27 16:04 35.33874 25.19493 205 ft 129 kts 276°
2026-04-27 16:04 35.33945 25.18427 93 ft 114 kts 277°
2026-04-27 16:04 35.34003 25.17665 92 ft 65 kts 275°
2026-04-27 16:05 35.34028 25.17299 92 ft 32 kts 274°
2026-04-27 16:05 35.34005 25.17131 91 ft 14 kts 245°
2026-04-27 16:05 35.33976 25.17054 91 ft 0 kts 244°
2026-04-27 16:07 35.33966 25.17049 92 ft 4 kts 199°
2026-04-27 16:07 35.33940 25.17069 90 ft 6 kts 109°
2026-04-27 16:07 35.33936 25.17137 90 ft 8 kts 95°
2026-04-27 16:08 35.33929 25.17231 91 ft 13 kts 95°
2026-04-27 16:08 35.33922 25.17335 91 ft 12 kts 95°
2026-04-27 16:08 35.33915 25.17431 91 ft 11 kts 95°
2026-04-27 16:08 35.33882 25.17497 91 ft 9 kts 173°
2026-04-27 16:09 35.33860 25.17479 91 ft 3 kts 271°
2026-04-27 16:09 35.33881 25.17421 91 ft 0 kts 319°